| time (UTC) | temp F | wind direction | speed MPH | gust MPH | rain 1hr in | rain 24hr in | rain mn in | humidity % | barometer mb |
| 20260503184154 | 62 | 130 | 1.0 | 9.0 | 0.00 | 0.00 | 0.00 | 41 | 1013.1 |
| 20260503183654 | 61 | 160 | 1.0 | 9.0 | 0.00 | 0.00 | 0.00 | 40 | 1013.1 |
| 20260503183148 | 60 | 222 | 1.0 | 4.0 | 0.00 | 0.00 | 0.00 | 41 | 1013.1 |
| 20260503182639 | 60 | 222 | 1.0 | 5.0 | 0.00 | 0.00 | 0.00 | 44 | 1013.7 |
| 20260503182118 | 60 | 276 | 1.0 | 5.0 | 0.00 | 0.00 | 0.00 | 42 | 1013.7 |
| 20260503181618 | 59 | 280 | 1.0 | 7.0 | 0.00 | 0.00 | 0.00 | 46 | 1013.7 |
| 20260503181115 | 58 | 280 | 1.0 | 7.0 | 0.00 | 0.00 | 0.00 | 41 | 1014.2 |
| 20260503180604 | 58 | 254 | 1.0 | 7.0 | 0.00 | 0.00 | 0.00 | 42 | 1014.2 |
| 20260503180100 | 58 | 220 | 0.0 | 3.0 | 0.00 | 0.00 | 0.00 | 42 | 1014.2 |
| 20260503175536 | 58 | 273 | 1.0 | 7.0 | 0.00 | 0.00 | 0.00 | 43 | 1014.4 |
| 20260503175025 | 58 | 270 | 2.0 | 7.0 | 0.00 | 0.00 | 0.00 | 41 | 1014.7 |
| 20260503175021 | 58 | 256 | 2.0 | 7.0 | 0.00 | 0.00 | 0.00 | 42 | 1014.4 |
| 20260503174025 | 59 | 244 | 1.0 | 7.0 | 0.00 | 0.00 | 0.00 | 42 | 1014.7 |
| 20260503174020 | 59 | 198 | 1.0 | 7.0 | 0.00 | 0.00 | 0.00 | 39 | 1014.7 |
| 20260503172952 | 59 | 245 | 2.0 | 10.0 | 0.00 | 0.00 | 0.00 | 40 | 1014.8 |
| 20260503172453 | 60 | 231 | 2.0 | 14.0 | 0.00 | 0.00 | 0.00 | 38 | 1014.8 |
| 20260503171940 | 60 | 233 | 2.0 | 14.0 | 0.00 | 0.00 | 0.00 | 38 | 1014.8 |
| 20260503171439 | 60 | 335 | 2.0 | 13.0 | 0.00 | 0.00 | 0.00 | 40 | 1014.9 |
| 20260503171424 | 59 | 268 | 2.0 | 8.0 | 0.00 | 0.00 | 0.00 | 38 | 1014.9 |
| 20260503170410 | 59 | 284 | 1.0 | 10.0 | 0.00 | 0.00 | 0.00 | 42 | 1014.9 |
| 20260503150729 | 56 | 212 | 1.0 | 4.0 | 0.00 | 0.00 | 0.00 | 44 | 1016.3 |
| 20260503150220 | 56 | 250 | 1.0 | 6.0 | 0.00 | 0.00 | 0.00 | 42 | 1016.3 |
| 20260503130913 | 48 | 254 | 0.0 | 8.0 | 0.00 | 0.00 | 0.00 | 53 | 1016.7 |
| 20260503130411 | 47 | 258 | 0.0 | 8.0 | 0.00 | 0.00 | 0.00 | 55 | 1016.7 |
| 20260503120138 | 40 | 316 | 0.0 | 2.0 | 0.00 | 0.00 | 0.00 | 69 | 1016.8 |
| 20260503110628 | 37 | 316 | 0.0 | 0.0 | 0.00 | 0.00 | 0.00 | 76 | 1016.4 |
| 20260503090119 | 37 | 316 | 0.0 | 0.0 | 0.00 | 0.00 | 0.00 | 79 | 1016.0 |
| 20260503081219 | 37 | 316 | 0.0 | 0.0 | 0.00 | 0.00 | 0.00 | 80 | 1016.1 |
| 20260503081212 | 37 | 316 | 0.0 | 0.0 | 0.00 | 0.00 | 0.00 | 80 | 1016.1 |
| 20260503080202 | 37 | 316 | 0.0 | 0.0 | 0.00 | 0.00 | 0.00 | 80 | 1016.1 |
| 20260503072600 | 37 | 316 | 0.0 | 0.0 | 0.00 | 0.00 | 0.00 | 81 | 1016.1 |
| 20260503072020 | 37 | 316 | 0.0 | 0.0 | 0.00 | 0.00 | 0.00 | 81 | 1016.1 |
| 20260503071511 | 36 | 316 | 0.0 | 0.0 | 0.00 | 0.00 | 0.00 | 82 | 1016.1 |
| 20260503070959 | 36 | 316 | 0.0 | 0.0 | 0.00 | 0.00 | 0.00 | 82 | 1016.1 |
| 20260503070446 | 36 | 316 | 0.0 | 0.0 | 0.00 | 0.00 | 0.00 | 82 | 1016.1 |
| 20260503054749 | 37 | 316 | 0.0 | 0.0 | 0.00 | 0.00 | 0.00 | 80 | 1016.7 |
| 20260503054248 | 37 | 316 | 0.0 | 0.0 | 0.00 | 0.00 | 0.00 | 80 | 1016.7 |
| 20260503053730 | 37 | 316 | 0.0 | 0.0 | 0.00 | 0.00 | 0.00 | 79 | 1016.7 |
| 20260503053221 | 37 | 316 | 0.0 | 0.0 | 0.00 | 0.00 | 0.00 | 79 | 1016.7 |
| 20260503052720 | 37 | 316 | 0.0 | 0.0 | 0.00 | 0.00 | 0.00 | 78 | 1016.7 |
| 20260503052220 | 37 | 316 | 0.0 | 0.0 | 0.00 | 0.00 | 0.00 | 78 | 1016.7 |
| 20260503051721 | 38 | 316 | 0.0 | 0.0 | 0.00 | 0.00 | 0.00 | 78 | 1016.7 |
| 20260503051142 | 38 | 316 | 0.0 | 0.0 | 0.00 | 0.00 | 0.00 | 78 | 1016.8 |
| 20260503050625 | 38 | 316 | 0.0 | 0.0 | 0.00 | 0.00 | 0.00 | 77 | 1016.8 |
| 20260503050119 | 38 | 316 | 0.0 | 0.0 | 0.00 | 0.00 | 0.00 | 77 | 1016.8 |
| 20260503045619 | 38 | 316 | 0.0 | 0.0 | 0.00 | 0.00 | 0.00 | 77 | 1016.9 |
| 20260503045107 | 38 | 316 | 0.0 | 0.0 | 0.00 | 0.00 | 0.00 | 76 | 1016.9 |
| 20260503044607 | 38 | 316 | 0.0 | 0.0 | 0.00 | 0.00 | 0.00 | 76 | 1016.9 |
| 20260503044107 | 38 | 316 | 0.0 | 0.0 | 0.00 | 0.00 | 0.00 | 76 | 1016.9 |
| 20260503043556 | 38 | 316 | 0.0 | 0.0 | 0.00 | 0.00 | 0.00 | 75 | 1016.9 |
| 20260503043044 | 38 | 316 | 0.0 | 0.0 | 0.00 | 0.00 | 0.00 | 75 | 1016.9 |
| 20260503042538 | 38 | 316 | 0.0 | 0.0 | 0.00 | 0.00 | 0.00 | 74 | 1016.8 |
| 20260503042006 | 38 | 316 | 0.0 | 0.0 | 0.00 | 0.00 | 0.00 | 74 | 1016.8 |
| 20260503041506 | 38 | 316 | 0.0 | 0.0 | 0.00 | 0.00 | 0.00 | 74 | 1016.8 |
| 20260503040958 | 38 | 316 | 0.0 | 0.0 | 0.00 | 0.00 | 0.00 | 73 | 1016.8 |
| 20260503040951 | 38 | 316 | 0.0 | 0.0 | 0.00 | 0.00 | 0.00 | 73 | 1016.8 |
| 20260503035950 | 38 | 316 | 0.0 | 0.0 | 0.00 | 0.00 | 0.00 | 71 | 1016.8 |
| 20260503035449 | 39 | 316 | 0.0 | 0.0 | 0.00 | 0.00 | 0.00 | 71 | 1016.8 |
| 20260503034942 | 39 | 316 | 0.0 | 0.0 | 0.00 | 0.00 | 0.00 | 71 | 1016.8 |
| 20260503034419 | 39 | 316 | 0.0 | 0.0 | 0.00 | 0.00 | 0.00 | 70 | 1016.8 |
| 20260503033913 | 39 | 316 | 0.0 | 0.0 | 0.00 | 0.00 | 0.00 | 70 | 1016.8 |
| 20260503033402 | 39 | 316 | 0.0 | 0.0 | 0.00 | 0.00 | 0.00 | 70 | 1016.8 |
| 20260503032855 | 39 | 316 | 0.0 | 0.0 | 0.00 | 0.00 | 0.00 | 69 | 1016.9 |
| 20260503032351 | 40 | 316 | 0.0 | 0.0 | 0.00 | 0.00 | 0.00 | 68 | 1016.9 |
| 20260503031856 | 40 | 316 | 0.0 | 0.0 | 0.00 | 0.00 | 0.00 | 67 | 1017.0 |
| 20260503031850 | 40 | 316 | 0.0 | 0.0 | 0.00 | 0.00 | 0.00 | 68 | 1016.9 |
| 20260503031337 | 40 | 316 | 0.0 | 0.0 | 0.00 | 0.00 | 0.00 | 66 | 1017.0 |
| 20260503030311 | 40 | 316 | 0.0 | 0.0 | 0.00 | 0.00 | 0.00 | 66 | 1017.0 |
| 20260503025744 | 40 | 316 | 0.0 | 0.0 | 0.00 | 0.00 | 0.00 | 66 | 1017.1 |
| 20260503025223 | 41 | 316 | 0.0 | 0.0 | 0.00 | 0.00 | 0.00 | 66 | 1017.1 |
| 20260503024714 | 41 | 316 | 0.0 | 0.0 | 0.00 | 0.00 | 0.00 | 65 | 1017.1 |
| 20260503024139 | 41 | 316 | 0.0 | 0.0 | 0.00 | 0.00 | 0.00 | 65 | 1016.9 |
| 20260503023555 | 41 | 316 | 0.0 | 0.0 | 0.00 | 0.00 | 0.00 | 64 | 1016.9 |
| 20260503023020 | 41 | 316 | 0.0 | 0.0 | 0.00 | 0.00 | 0.00 | 63 | 1016.7 |
| 20260503022520 | 42 | 316 | 0.0 | 0.0 | 0.00 | 0.00 | 0.00 | 62 | 1016.7 |
| 20260503022013 | 42 | 316 | 0.0 | 0.0 | 0.00 | 0.00 | 0.00 | 60 | 1016.7 |
| 20260503021511 | 42 | 316 | 0.0 | 0.0 | 0.00 | 0.00 | 0.00 | 60 | 1016.7 |
| 20260503021009 | 42 | 316 | 0.0 | 0.0 | 0.00 | 0.00 | 0.00 | 59 | 1016.7 |
| 20260503020506 | 43 | 316 | 0.0 | 0.0 | 0.00 | 0.00 | 0.00 | 59 | 1016.7 |
| 20260503020007 | 43 | 316 | 0.0 | 0.0 | 0.00 | 0.00 | 0.00 | 58 | 1016.5 |
| 20260503015502 | 43 | 316 | 0.0 | 0.0 | 0.00 | 0.00 | 0.00 | 58 | 1016.5 |
| 20260503015002 | 44 | 316 | 0.0 | 0.0 | 0.00 | 0.00 | 0.00 | 56 | 1016.5 |
| 20260503014446 | 44 | 316 | 0.0 | 0.0 | 0.00 | 0.00 | 0.00 | 56 | 1016.5 |
| 20260503014435 | 44 | 316 | 0.0 | 0.0 | 0.00 | 0.00 | 0.00 | 54 | 1016.5 |
| 20260503013432 | 44 | 316 | 0.0 | 0.0 | 0.00 | 0.00 | 0.00 | 51 | 1016.5 |
| 20260503012922 | 45 | 316 | 0.0 | 0.0 | 0.00 | 0.00 | 0.00 | 51 | 1016.3 |
| 20260503012917 | 45 | 316 | 0.0 | 0.0 | 0.00 | 0.00 | 0.00 | 51 | 1016.3 |
| 20260503012407 | 45 | 316 | 0.0 | 0.0 | 0.00 | 0.00 | 0.00 | 50 | 1016.3 |
| 20260503011346 | 46 | 316 | 0.0 | 0.0 | 0.00 | 0.00 | 0.00 | 49 | 1016.3 |
| 20260503010836 | 46 | 316 | 0.0 | 0.0 | 0.00 | 0.00 | 0.00 | 46 | 1016.3 |
| 20260503010337 | 47 | 316 | 0.0 | 0.0 | 0.00 | 0.00 | 0.00 | 47 | 1016.3 |
| 20260503005837 | 47 | 316 | 0.0 | 0.0 | 0.00 | 0.00 | 0.00 | 46 | 1016.2 |
| 20260503005322 | 48 | 316 | 0.0 | 0.0 | 0.00 | 0.00 | 0.00 | 46 | 1016.2 |
| 20260503004813 | 48 | 316 | 0.0 | 0.0 | 0.00 | 0.00 | 0.00 | 45 | 1016.2 |
| 20260503004308 | 49 | 316 | 0.0 | 0.0 | 0.00 | 0.00 | 0.00 | 43 | 1016.2 |
| 20260503003751 | 49 | 316 | 0.0 | 0.0 | 0.00 | 0.00 | 0.00 | 43 | 1016.2 |
| 20260503003238 | 49 | 316 | 0.0 | 0.0 | 0.00 | 0.00 | 0.00 | 40 | 1016.2 |
| 20260503002736 | 50 | 316 | 0.0 | 1.0 | 0.00 | 0.00 | 0.00 | 40 | 1016.0 |
| 20260503002237 | 50 | 316 | 0.0 | 1.0 | 0.00 | 0.00 | 0.00 | 36 | 1016.0 |
| 20260503001723 | 50 | 316 | 0.0 | 0.0 | 0.00 | 0.00 | 0.00 | 38 | 1016.1 |
| 20260503001719 | 50 | 316 | 0.0 | 0.0 | 0.00 | 0.00 | 0.00 | 36 | 1016.0 |
| 20260503000716 | 51 | 316 | 0.0 | 4.0 | 0.00 | 0.00 | 0.00 | 36 | 1016.1 |
| 20260503000159 | 51 | 316 | 0.0 | 4.0 | 0.00 | 0.00 | 0.00 | 35 | 1016.1 |
| 20260502235659 | 51 | 316 | 0.0 | 3.0 | 0.00 | 0.00 | 0.00 | 37 | 1016.1 |
| 20260502235155 | 51 | 308 | 0.0 | 3.0 | 0.00 | 0.00 | 0.00 | 37 | 1016.1 |
| 20260502234645 | 51 | 308 | 0.0 | 1.0 | 0.00 | 0.00 | 0.00 | 36 | 1016.1 |
| 20260502234621 | 51 | 308 | 0.0 | 1.0 | 0.00 | 0.00 | 0.00 | 35 | 1016.0 |
| 20260502233621 | 51 | 308 | 0.0 | 2.0 | 0.00 | 0.00 | 0.00 | 35 | 1016.0 |
| 20260502233119 | 51 | 308 | 0.0 | 2.0 | 0.00 | 0.00 | 0.00 | 36 | 1016.0 |
| 20260502232616 | 51 | 308 | 0.0 | 3.0 | 0.00 | 0.00 | 0.00 | 35 | 1016.1 |
| 20260502232055 | 51 | 308 | 0.0 | 3.0 | 0.00 | 0.00 | 0.00 | 33 | 1016.1 |
| 20260502231553 | 51 | 308 | 1.0 | 7.0 | 0.00 | 0.00 | 0.00 | 35 | 1016.1 |
| 20260502231549 | 51 | 308 | 0.0 | 5.0 | 0.00 | 0.00 | 0.00 | 34 | 1016.1 |
| 20260502230524 | 52 | 308 | 1.0 | 7.0 | 0.00 | 0.00 | 0.00 | 34 | 1016.1 |
| 20260502230510 | 52 | 6 | 1.0 | 9.0 | 0.00 | 0.00 | 0.00 | 34 | 1016.1 |
| 20260502225459 | 53 | 303 | 1.0 | 9.0 | 0.00 | 0.00 | 0.00 | 31 | 1016.1 |
| 20260502224958 | 53 | 339 | 1.0 | 6.0 | 0.00 | 0.00 | 0.00 | 32 | 1016.1 |
| 20260502224448 | 53 | 297 | 1.0 | 7.0 | 0.00 | 0.00 | 0.00 | 31 | 1016.1 |
| 20260502223945 | 53 | 25 | 0.0 | 7.0 | 0.00 | 0.00 | 0.00 | 34 | 1016.1 |
| 20260502223442 | 54 | 343 | 0.0 | 4.0 | 0.00 | 0.00 | 0.00 | 32 | 1016.1 |
| 20260502222933 | 54 | 343 | 0.0 | 4.0 | 0.00 | 0.00 | 0.00 | 31 | 1016.1 |
| 20260502222432 | 54 | 31 | 1.0 | 7.0 | 0.00 | 0.00 | 0.00 | 32 | 1016.1 |
| 20260502221913 | 54 | 30 | 0.0 | 7.0 | 0.00 | 0.00 | 0.00 | 33 | 1016.1 |
| 20260502221410 | 54 | 1 | 1.0 | 7.0 | 0.00 | 0.00 | 0.00 | 32 | 1016.1 |
| 20260502220907 | 54 | 1 | 1.0 | 7.0 | 0.00 | 0.00 | 0.00 | 31 | 1016.1 |
| 20260502220406 | 53 | 2 | 1.0 | 5.0 | 0.00 | 0.00 | 0.00 | 36 | 1016.1 |
| 20260502215854 | 53 | 2 | 1.0 | 8.0 | 0.00 | 0.00 | 0.00 | 31 | 1016.0 |
| 20260502215341 | 54 | 226 | 2.0 | 10.0 | 0.00 | 0.00 | 0.00 | 30 | 1016.0 |
| 20260502214832 | 55 | 285 | 1.0 | 7.0 | 0.00 | 0.00 | 0.00 | 30 | 1016.0 |
| 20260502214330 | 55 | 283 | 2.0 | 8.0 | 0.00 | 0.00 | 0.00 | 29 | 1016.0 |
| 20260502214323 | 55 | 278 | 1.0 | 7.0 | 0.00 | 0.00 | 0.00 | 31 | 1016.0 |
| 20260502213825 | 56 | 317 | 1.0 | 8.0 | 0.00 | 0.00 | 0.00 | 30 | 1016.0 |
| 20260502212821 | 55 | 222 | 1.0 | 7.0 | 0.00 | 0.00 | 0.00 | 32 | 1016.0 |
| 20260502212321 | 54 | 306 | 0.0 | 6.0 | 0.00 | 0.00 | 0.00 | 30 | 1016.0 |
| 20260502211810 | 54 | 222 | 2.0 | 13.0 | 0.00 | 0.00 | 0.00 | 31 | 1016.0 |
| 20260502211245 | 55 | 339 | 2.0 | 13.0 | 0.00 | 0.00 | 0.00 | 30 | 1016.0 |
| 20260502210745 | 55 | 337 | 1.0 | 7.0 | 0.00 | 0.00 | 0.00 | 31 | 1016.0 |
| 20260502210739 | 56 | 349 | 2.0 | 7.0 | 0.00 | 0.00 | 0.00 | 33 | 1016.0 |
| 20260502205729 | 55 | 53 | 2.0 | 8.0 | 0.00 | 0.00 | 0.00 | 31 | 1016.1 |
| 20260502205724 | 55 | 348 | 2.0 | 7.0 | 0.00 | 0.00 | 0.00 | 30 | 1016.1 |
| 20260502205328 | 54 | 299 | 2.0 | 8.0 | 0.00 | 0.00 | 0.00 | 30 | 1016.1 |
| 20260502204225 | 54 | 13 | 3.0 | 9.0 | 0.00 | 0.00 | 0.00 | 35 | 1016.1 |
| 20260502203722 | 54 | 6 | 2.0 | 9.0 | 0.00 | 0.00 | 0.00 | 32 | 1016.1 |
| 20260502203221 | 54 | 341 | 3.0 | 8.0 | 0.00 | 0.00 | 0.00 | 35 | 1016.1 |
| 20260502202720 | 54 | 18 | 3.0 | 8.0 | 0.00 | 0.00 | 0.00 | 32 | 1016.2 |
| 20260502202219 | 54 | 359 | 1.0 | 8.0 | 0.00 | 0.00 | 0.00 | 33 | 1016.2 |
| 20260502201720 | 53 | 274 | 2.0 | 15.0 | 0.00 | 0.00 | 0.00 | 32 | 1016.2 |
| 20260502201208 | 53 | 274 | 3.0 | 15.0 | 0.00 | 0.00 | 0.00 | 30 | 1016.2 |
| 20260502200654 | 54 | 326 | 2.0 | 14.0 | 0.00 | 0.00 | 0.00 | 33 | 1016.2 |
| 20260502200650 | 54 | 324 | 2.0 | 8.0 | 0.00 | 0.00 | 0.00 | 34 | 1016.2 |
| 20260502195650 | 54 | 266 | 2.0 | 14.0 | 0.00 | 0.00 | 0.00 | 35 | 1016.3 |
| 20260502195146 | 54 | 288 | 1.0 | 6.0 | 0.00 | 0.00 | 0.00 | 30 | 1016.3 |
| 20260502194639 | 54 | 19 | 1.0 | 8.0 | 0.00 | 0.00 | 0.00 | 32 | 1016.3 |
| 20260502194135 | 53 | 22 | 2.0 | 9.0 | 0.00 | 0.00 | 0.00 | 32 | 1016.5 |
| 20260502193634 | 53 | 14 | 2.0 | 9.0 | 0.00 | 0.00 | 0.00 | 32 | 1016.5 |
| 20260502193120 | 54 | 4 | 2.0 | 8.0 | 0.00 | 0.00 | 0.00 | 36 | 1016.5 |
| 20260502192618 | 55 | 316 | 3.0 | 10.0 | 0.00 | 0.00 | 0.00 | 34 | 1016.5 |
| 20260502192116 | 55 | 73 | 3.0 | 10.0 | 0.00 | 0.00 | 0.00 | 32 | 1016.5 |
| 20260502191615 | 55 | 352 | 2.0 | 9.0 | 0.00 | 0.00 | 0.00 | 32 | 1016.5 |
| 20260502191117 | 55 | 20 | 1.0 | 5.0 | 0.00 | 0.00 | 0.00 | 35 | 1016.5 |
| 20260502190601 | 55 | 20 | 2.0 | 11.0 | 0.00 | 0.00 | 0.00 | 33 | 1016.5 |
| 20260502190100 | 54 | 301 | 2.0 | 10.0 | 0.00 | 0.00 | 0.00 | 38 | 1016.6 |
| 20260502190056 | 55 | 26 | 1.0 | 11.0 | 0.00 | 0.00 | 0.00 | 37 | 1016.5 |
| 20260502185044 | 53 | 26 | 3.0 | 10.0 | 0.00 | 0.00 | 0.00 | 38 | 1016.6 |